Weather History for Austin, MN

Change the Weather History Date:

Saturday, April 6, 2013

  Actual Average Record
Temperature  
Mean Temperature 48 °F -  
Max Temperature 59 °F 48 °F 66 °F (2004)
Min Temperature 37 °F 30 °F 12 °F (1999)
Degree Days  
Heating Degree Days 17    
Moisture  
Dew Point 34 °F    
Average Humidity 69    
Maximum Humidity 87    
Minimum Humidity 51    
Precipitation  
Precipitation 0.04 in - - ()
Sea Level Pressure  
Sea Level Pressure 29.66 in    
Wind  
Wind Speed 15 mph (South)    
Max Wind Speed 22 mph    
Max Gust Speed 29 mph    
Visibility 9 miles    
Events Rain , Thunderstorm    
Averages and records for this station are not official NWS values.
T = Trace of Precipitation, MM = Missing Value Source: NWS Daily Summary

Daily Weather History Graph

Daily Weather History Graph

Search for Another Location

Airport:

Trip Planner

Search our weather history database for the weather conditions in past years. The results will help you decide how hot, cold, wet, or windy it might be!

Date:

Astronomy

Apr. 06, 2013 Rise Set
Actual Time 6:43 AM CDT 7:44 PM CDT
Civil Twilight 6:14 AM CDT 8:14 PM CDT
Nautical Twilight 5:39 AM CDT 8:49 PM CDT
Astronomical Twilight 5:03 AM CDT 9:25 PM CDT
Moon 4:34 AM CDT (4/6) 4:08 PM CDT (4/6)
Length of Visible Light 13h 59m
Length of Day
13h 00m
Waning Crescent, 15% of the Moon is Illuminated
Apr 6
Waning Crescent
Apr 10
New
Apr 18
First Quarter
Apr 25
Full
May 2
Last Quarter

Hourly Weather History & Observations

Time (CDT) Temp. Windchill Dew Point Humidity Pressure Visibility Wind Dir Wind Speed Gust Speed Precip Events Conditions
12:15 AM 39.2 °F 29.8 °F 26.6 °F 61% 29.87 in 10.0 mi SE 18.4 mph - N/A   Clear
12:35 AM 39.2 °F 30.2 °F 28.4 °F 65% 29.86 in 10.0 mi SE 17.3 mph 21.9 mph N/A   Clear
12:56 AM 39.2 °F 30.5 °F 28.4 °F 65% 29.86 in 10.0 mi SE 16.1 mph 20.7 mph N/A   Scattered Clouds
1:15 AM 39.2 °F 30.5 °F 26.6 °F 61% 29.85 in 10.0 mi SE 16.1 mph 21.9 mph N/A   Mostly Cloudy
1:35 AM 39.2 °F 30.2 °F 26.6 °F 61% 29.84 in 10.0 mi SE 17.3 mph 23.0 mph N/A   Scattered Clouds
1:56 AM 39.2 °F 30.5 °F 26.6 °F 61% 29.83 in 10.0 mi SE 16.1 mph 21.9 mph N/A   Clear
2:15 AM 41.0 °F 32.8 °F 26.6 °F 57% 29.82 in 10.0 mi SE 16.1 mph 24.2 mph N/A   Clear
2:35 AM 41.0 °F 32.2 °F 26.6 °F 57% 29.81 in 10.0 mi SE 18.4 mph 24.2 mph N/A   Clear
2:56 AM 41.0 °F 33.1 °F 26.6 °F 57% 29.80 in 10.0 mi SSE 15.0 mph 28.8 mph N/A   Scattered Clouds
3:15 AM 41.0 °F 32.5 °F 26.6 °F 57% 29.79 in 10.0 mi SE 17.3 mph 24.2 mph N/A   Scattered Clouds
3:35 AM 39.2 °F 30.5 °F 26.6 °F 61% 29.78 in 10.0 mi SE 16.1 mph 26.5 mph N/A   Clear
3:56 AM 39.2 °F 30.8 °F 24.8 °F 56% 29.77 in 10.0 mi SE 15.0 mph 24.2 mph N/A   Clear
4:15 AM 39.2 °F 30.8 °F 24.8 °F 56% 29.76 in 10.0 mi SSE 15.0 mph 24.2 mph N/A   Clear
4:35 AM 39.2 °F 30.5 °F 24.8 °F 56% 29.76 in 10.0 mi SE 16.1 mph 20.7 mph N/A   Clear
4:55 AM 37.4 °F 28.2 °F 24.8 °F 60% 29.75 in 10.0 mi SSE 16.1 mph 20.7 mph N/A   Clear
5:15 AM 37.4 °F 28.9 °F 24.8 °F 60% 29.74 in 10.0 mi SE 13.8 mph 24.2 mph N/A   Clear
5:35 AM 37.4 °F 29.8 °F 24.8 °F 60% 29.73 in 10.0 mi SSE 11.5 mph 21.9 mph N/A   Clear
5:55 AM 37.4 °F 30.3 °F 24.8 °F 60% 29.73 in 10.0 mi SE 10.4 mph 17.3 mph N/A   Clear
6:15 AM 37.4 °F 28.9 °F 24.8 °F 60% 29.71 in 10.0 mi SE 13.8 mph 19.6 mph N/A   Clear
6:35 AM 37.4 °F 29.3 °F 24.8 °F 60% 29.70 in 10.0 mi SE 12.7 mph 19.6 mph N/A   Clear
6:55 AM 37.4 °F 28.9 °F 24.8 °F 60% 29.69 in 10.0 mi SE 13.8 mph 20.7 mph N/A   Mostly Cloudy
7:15 AM 37.4 °F 28.9 °F 24.8 °F 60% 29.68 in 10.0 mi SSE 13.8 mph 18.4 mph N/A   Overcast
7:36 AM 37.4 °F 29.3 °F 26.6 °F 65% 29.67 in 10.0 mi SE 12.7 mph 18.4 mph N/A   Scattered Clouds
7:55 AM 37.4 °F 28.9 °F 26.6 °F 65% 29.66 in 10.0 mi SE 13.8 mph 21.9 mph N/A   Mostly Cloudy
8:15 AM 39.2 °F 30.8 °F 26.6 °F 61% 29.66 in 10.0 mi SE 15.0 mph 21.9 mph N/A   Mostly Cloudy
8:35 AM 39.2 °F 31.2 °F 26.6 °F 61% 29.64 in 10.0 mi SE 13.8 mph 20.7 mph N/A   Mostly Cloudy
8:56 AM 39.2 °F 32.0 °F 26.6 °F 61% 29.63 in 10.0 mi SSE 11.5 mph 20.7 mph N/A   Mostly Cloudy
9:15 AM 39.2 °F 32.0 °F 28.4 °F 65% 29.62 in 10.0 mi SSE 11.5 mph 18.4 mph N/A   Clear
9:35 AM 42.8 °F 36.6 °F 30.2 °F 61% 29.60 in 10.0 mi SSE 11.5 mph 18.4 mph N/A   Clear
9:56 AM 44.6 °F 38.1 °F 32.0 °F 61% 29.59 in 10.0 mi SSE 13.8 mph 21.9 mph N/A   Clear
10:15 AM 46.4 °F 40.7 °F 33.8 °F 62% 29.58 in 10.0 mi SSE 12.7 mph 18.4 mph N/A   Clear
10:36 AM 48.2 °F - 35.6 °F 62% 29.58 in 10.0 mi South 11.5 mph - N/A   Clear
10:55 AM 51.8 °F - 35.6 °F 54% 29.58 in 10.0 mi SSE 11.5 mph 17.3 mph N/A   Clear
11:16 AM 55.4 °F - 39.2 °F 54% 29.57 in 10.0 mi South 19.6 mph 26.5 mph N/A   Clear
11:35 AM 55.4 °F - 39.2 °F 54% 29.56 in 10.0 mi South 19.6 mph 27.6 mph N/A   Clear
11:55 AM 57.2 °F - 39.2 °F 51% 29.56 in 10.0 mi South 17.3 mph - N/A   Clear
12:15 PM 57.2 °F - 41.0 °F 55% 29.55 in 10.0 mi South 16.1 mph 19.6 mph N/A   Scattered Clouds
12:36 PM 59.0 °F - 41.0 °F 51% 29.55 in 10.0 mi SSW 19.6 mph 25.3 mph N/A   Overcast
12:55 PM 57.2 °F - 42.8 °F 59% 29.54 in 10.0 mi SSW 15.0 mph 26.5 mph N/A   Overcast
1:16 PM 57.2 °F - 42.8 °F 59% 29.53 in 10.0 mi SSW 15.0 mph 23.0 mph N/A   Overcast
1:35 PM 57.2 °F - 42.8 °F 59% 29.53 in 10.0 mi SSW 12.7 mph - N/A   Mostly Cloudy
1:55 PM 57.2 °F - 42.8 °F 59% 29.52 in 10.0 mi SSW 12.7 mph - N/A Rain Light Rain
2:16 PM 55.4 °F - 42.8 °F 63% 29.52 in 10.0 mi SSW 17.3 mph 21.9 mph N/A Rain Rain
2:35 PM 55.4 °F - 44.6 °F 67% 29.52 in 10.0 mi SSW 12.7 mph - N/A   Drizzle
2:55 PM 55.4 °F - 44.6 °F 67% 29.51 in 10.0 mi SSW 15.0 mph 20.7 mph N/A   Light Drizzle
3:16 PM 53.6 °F - 46.4 °F 77% 29.52 in 7.0 mi SSW 16.1 mph - N/A Rain Rain
3:35 PM 50.0 °F - 44.6 °F 82% 29.52 in 7.0 mi WSW 12.7 mph - 0.01 in Rain Light Rain
3:55 PM 48.2 °F - 44.6 °F 87% 29.50 in 7.0 mi SW 9.2 mph - 0.02 in Rain Rain
4:16 PM 48.2 °F - 44.6 °F 87% 29.50 in 5.0 mi SW 6.9 mph - 0.02 in Rain Light Rain
4:35 PM 48.2 °F - 44.6 °F 87% 29.53 in 4.0 mi WSW 9.2 mph - 0.02 in Rain Light Rain
4:55 PM 48.2 °F - 44.6 °F 87% 29.53 in 5.0 mi WSW 10.4 mph - 0.02 in   Mostly Cloudy
5:15 PM 48.2 °F - 44.6 °F 87% 29.54 in 7.0 mi WSW 13.8 mph 18.4 mph N/A   Mostly Cloudy
5:35 PM 48.2 °F - 44.6 °F 87% 29.56 in 5.0 mi West 12.7 mph 24.2 mph N/A   Light Drizzle
5:56 PM 46.4 °F 40.1 °F 42.8 °F 87% 29.57 in 2.0 mi West 15.0 mph 23.0 mph N/A   Overcast
6:15 PM 46.4 °F 40.7 °F 42.8 °F 87% 29.59 in 2.5 mi West 12.7 mph 23.0 mph N/A   Overcast
6:36 PM 46.4 °F 40.4 °F 42.8 °F 87% 29.60 in 4.0 mi West 13.8 mph 17.3 mph N/A Thunderstorm Overcast
6:55 PM 46.4 °F 39.0 °F 42.8 °F 87% 29.60 in 5.0 mi WNW 19.6 mph - N/A   Overcast
7:15 PM 44.6 °F 37.2 °F 41.0 °F 87% 29.61 in 7.0 mi WNW 17.3 mph 25.3 mph N/A   Overcast
7:36 PM 44.6 °F 36.1 °F 39.2 °F 81% 29.62 in 10.0 mi WNW 21.9 mph 26.5 mph N/A   Overcast
7:55 PM 44.6 °F 36.4 °F 39.2 °F 81% 29.63 in 10.0 mi NW 20.7 mph 26.5 mph N/A   Overcast
8:15 PM 42.8 °F 34.5 °F 37.4 °F 81% 29.65 in 10.0 mi NW 18.4 mph 21.9 mph N/A   Overcast
8:36 PM 42.8 °F 35.8 °F 37.4 °F 81% 29.66 in 10.0 mi NW 13.8 mph 24.2 mph N/A   Overcast
8:55 PM 42.8 °F 35.4 °F 37.4 °F 81% 29.67 in 10.0 mi NW 15.0 mph 23.0 mph N/A   Overcast
9:15 PM 42.8 °F 36.2 °F 37.4 °F 81% 29.68 in 10.0 mi NNW 12.7 mph 16.1 mph N/A   Overcast
9:35 PM 41.0 °F 34.7 °F 37.4 °F 87% 29.69 in 10.0 mi NW 10.4 mph - N/A   Overcast
9:56 PM 41.0 °F 33.1 °F 35.6 °F 81% 29.70 in 10.0 mi NW 15.0 mph 20.7 mph N/A   Overcast
10:15 PM 41.0 °F 33.5 °F 35.6 °F 81% 29.70 in 10.0 mi NW 13.8 mph 24.2 mph N/A   Overcast
10:35 PM 41.0 °F 33.1 °F 35.6 °F 81% 29.71 in 10.0 mi WNW 15.0 mph - N/A   Overcast
10:56 PM 39.2 °F 30.2 °F 33.8 °F 81% 29.73 in 10.0 mi NNW 17.3 mph 23.0 mph N/A   Overcast
11:15 PM 39.2 °F 31.6 °F 33.8 °F 81% 29.73 in 10.0 mi NW 12.7 mph - N/A   Mostly Cloudy
11:35 PM 37.4 °F 30.3 °F 33.8 °F 87% 29.73 in 10.0 mi NW 10.4 mph 18.4 mph N/A   Scattered Clouds
11:56 PM 37.4 °F 30.8 °F 32.0 °F 81% 29.75 in 10.0 mi WNW 9.2 mph - N/A   Scattered Clouds